Location: Hains Lake
(37.8540°N, 99.8578°W)
Time: 16:15:47
(UTC+00:00)

Vanguard 1 - Pass Details

Date: 05 December 2021
Orbit: 652 x 3830 km, 34.2° (Epoch: 22 January)

Event Time Altitude Azimuth Distance (km) Brightness Sun altitude
Exits shadow 10:14:03 62° 251° (WSW) 3,735 12.5 -40.0°
Maximum altitude 10:18:31 74° 195° (SSW) 3,333 12.4 -39.1°
Drops below altitude 10° 10:33:43 10° 114° (ESE) 4,811 14.2 -36.1°
Sets 10:36:41 0° 112° (ESE) 5,480 14.8 -35.5°
